Terug naar catalogus

FENGYUN 2B AKM

ActiefGEO
NORAD 26460·ROCKET BODY·🇨🇳 China

Gelanceerd Jun 25, 2000 vanaf Xichang Satellite Launch Center

Loading…

TLE

VersSource: Space-Track

Epoch: Sep 13, 2026, 16:10 UTC

1 26460U 00032C   26256.67413028 -.00000365  00000-0  00000-0 0  9990
2 26460  14.4710   5.5371 0021887  45.3348 314.8595  1.00177686123064

Volg FENGYUN 2B AKM in realtime met AllMySat

Download on the App Store